This is the latest recevied weather packets stored in our database for station/object IN3XSV-13. If no packets are shown the sender has not sent any weather packets the latest 10 day(s).
| Time | Temp. | Humidity | Pressure | Rain* | Wind** | Luminosity | Snow |
|---|---|---|---|---|---|---|---|
| 1787836966 | 30° C | 55% | 1011.5 hPa | 0 mm | - | - | - |
| 1787836666 | 30° C | 55% | 1011.6 hPa | 0 mm | - | - | - |
| 1787836366 | 30° C | 55% | 1011.5 hPa | 0 mm | - | - | - |
| 1787836066 | 30° C | 55% | 1011.4 hPa | 0 mm | - | - | - |
| 1787835766 | 30.56° C | 55% | 1011.4 hPa | 0 mm | - | - | - |
| 1787835466 | 30.56° C | 56% | 1011.5 hPa | 0 mm | - | - | - |
| 1787835166 | 30.56° C | 56% | 1011.5 hPa | 0 mm | - | - | - |
| 1787834866 | 30° C | 56% | 1011.6 hPa | 0 mm | - | - | - |
| 1787834566 | 30.56° C | 55% | 1011.6 hPa | 0 mm | - | - | - |
| 1787834266 | 30° C | 55% | 1011.6 hPa | 0 mm | - | - | - |
| 1787833966 | 30° C | 56% | 1011.6 hPa | 0 mm | - | - | - |
| 1787833666 | 30° C | 55% | 1011.7 hPa | 0 mm | - | - | - |
| 1787833366 | 31.11° C | 54% | 1011.7 hPa | 0 mm | - | - | - |
| 1787833066 | 30.56° C | 55% | 1011.8 hPa | 0 mm | - | - | - |
| 1787832766 | 30.56° C | 56% | 1011.7 hPa | 0 mm | - | - | - |
| 1787832466 | 30.56° C | 56% | 1011.8 hPa | 0 mm | - | - | - |
| 1787832166 | 31.11° C | 54% | 1011.7 hPa | 0 mm | - | - | - |
| 1787831866 | 30.56° C | 56% | 1011.7 hPa | 0 mm | - | - | - |
| 1787831566 | 30° C | 57% | 1011.7 hPa | 0 mm | - | - | - |
| 1787831266 | 30° C | 57% | 1011.9 hPa | 0 mm | - | - | - |
| 1787830966 | 29.44° C | 57% | 1011.8 hPa | 0 mm | - | - | - |
| 1787830668 | 30° C | 56% | 1011.7 hPa | 0 mm | - | - | - |
| 1787830366 | 30° C | 56% | 1011.7 hPa | 0 mm | - | - | - |
| 1787830066 | 30° C | 56% | 1011.7 hPa | 0 mm | - | - | - |
| 1787829766 | 30.56° C | 54% | 1011.8 hPa | 0 mm | - | - | - |
* Rain latest hour (hover to see other rain measurements)
** Current wind speed in m/s (hover to see current wind gust speed)